						0
					 | 
				
				
				
					
						
					 | 
				
				
					
						
					 | 
				
			
		
			
			
				
				
					
						 
					 | 
				
				
				
					
						
					 | 
				
				
				
					
					
					Asteroid 2011 SK189
					
					
					
					
						
					
					
						
							(Preview)
						
						
						
						
							
						
							
								Orbital elements:
2011 SK189                                               Earth MOID = 0.1111 AU
Epoch 2011 Aug. 27.0 TT = JDT 2455800.5                 MPC
M 348.31851              (2000.0)            P               Q
n   0.42694456     Peri.  355.24860     +0.99774425     -0.03069071
a   1.7467137      Node     7.35443     +0.06573595     +0.62697411
e   0.3633544      Incl.   27.80134     -0.01360840     +0.77843532
P   2.31           H   23.9...                                   
							 
							
						 
						
					
				 | 
				
					
						Blobrana
					 | 
				
				
					
						0
					 | 
				
				
				
					
						
					 | 
				
				
					
						
					 | 
				
			
		
			
			
				
				
					
						 
					 | 
				
				
				
					
						
					 | 
				
				
				
					
					
					Asteroid 2011 SM173
					
					
					
					
						
					
					
						
							(Preview)
						
						
						
						
							
						
							
								Orbital elements:
2011 SM173                                               Earth MOID = 0.0019 AU
Epoch 2011 Aug. 27.0 TT = JDT 2455800.5                 MPC
M 343.00074              (2000.0)            P               Q
n   0.25115739     Peri.  233.67960     +0.59898534     -0.80075998
a   2.4879334      Node   179.52308     +0.73938802     +0.55301817
e   0.6460593      Incl.    0.85601     +0.30744419     +0.23011811
P   3.92           H   27....                                   
							 
							
						 
						
					
				 | 
				
					
						Blobrana
					 | 
				
				
					
						0
					 | 
				
				
				
					
						
					 | 
				
				
					
						
					 | 
				
			
		
			
			
				
				
					
						 
					 | 
				
				
				
					
						
					 | 
				
				
				
					
					
					Asteroid 2011 SF173
					
					
					
					
						
					
					
						
							(Preview)
						
						
						
						
							
						
							
								Orbital elements:
2011 SF173                                               Earth MOID = 0.3193 AU
Epoch 2011 Aug. 27.0 TT = JDT 2455800.5                 MPC
M 357.89713              (2000.0)            P               Q
n   0.17763798     Peri.  332.47344     +0.98391383     +0.05705819
a   3.1340950      Node    25.98595     +0.07595968     +0.72406702
e   0.5890996      Incl.   22.72858     -0.16169017     +0.68736549
P   5.55           H   22.... 
							 
							
						 
						
					
				 | 
				
					
						Blobrana
					 | 
				
				
					
						0
					 | 
				
				
				
					
						
					 | 
				
				
					
						
					 | 
				
			
		
			
			
				
				
					
						 
					 | 
				
				
				
					
						
					 | 
				
				
				
					
					
					Asteroid 2011 SG173
					
					
					
					
						
					
					
						
							(Preview)
						
						
						
						
							
						
							
								Orbital elements:
2011 SG173                                               Earth MOID = 0.0615 AU
Epoch 2011 Aug. 27.0 TT = JDT 2455800.5                 MPC
M   1.40202              (2000.0)            P               Q
n   0.32873766     Peri.  241.42458     +0.85291110     +0.52105273
a   2.0792326      Node    87.15569     -0.46694999     +0.78912753
e   0.4872296      Incl.    1.85630     -0.23345314     +0.32524114
P   3.00           H   25.0           G   0... 
							 
							
						 
						
					
				 | 
				
					
						Blobrana
					 | 
				
				
					
						0
					 | 
				
				
				
					
						
					 | 
				
				
					
						
					 |